Regional Weather Roundup
Issued by NWS

Home | Current Version | Previous Version | Graphics & Text | Print | Product List | Glossary On
Versions: 1 2 3 4 5 6 7 8 9 10 11 12 13 14 15 16 17 18 19 20 21 22 23 24 25 26 27 28 29 30 31 32 33 34 35 36 37 38 39 40 41 42 43 44 45 46 47 48 49 50
000
ASUS45 KTFX 231904
RWRMT
MONTANA HOURLY WEATHER ROUNDUP
NATIONAL WEATHER SERVICE GREAT FALLS MT
104 PM MDT WED JUL 23 2014

NOTE: "FAIR" INDICATES FEW OR NO CLOUDS BELOW 12000 FEET WITH NO
SIGNIFICANT WEATHER AND/OR OBSTRUCTIONS TO VISIBILITY.

* THESE STATIONS ARE NOT UNDER NWS QUALITY CONTROL. THEY DO NOT
   REPORT WEATHER SUCH AS PRECIPITATION OR FOG.

MTZ001>007-043-232000-
WEST OF THE DIVIDE
CITY           SKY/WX    TMP DP  RH WIND       PRES   REMARKS
KALISPELL      SUNNY     77  55  47 SW5       30.04F
MISSOULA       SUNNY     82  54  38 SE10      30.04F
BUTTE          PTSUNNY  N/A N/A N/A N/A       30.20F
MULLAN PASS    SUNNY     66  52  61 VRB7      30.16F
* ESSEX        N/A       77  49  37 SE1G6      N/A
* LINCOLN      N/A       76  52  43 SW3        N/A
* LOOKOUT PASS N/A       73  55  53 S3         N/A
* POLSON       N/A       81  56  42 S3         N/A   HI  81
* RONAN APT    SUNNY     77  59  54 N/A        N/A
* SEELEY LAKE  N/A       75  57  54 SW4G9      N/A
* THOMP F APT  SUNNY     79  38  23 S7G15      N/A
* YAAK HILL    N/A       83  52  34 S2         N/A
$$

MTZ008-052>055-232000-
SOUTHWEST MONTANA
CITY           SKY/WX    TMP DP  RH WIND       PRES   REMARKS
BOZEMAN        PTCLDY    81  52  37 CALM      30.15F
DILLON         PTSUNNY   75  48  39 N5        30.19F
W YELLOWSTONE  SUNNY     79  36  21 SW17G29   30.30S
* THREE FORKS  PTCLDY    79  79 100 N/A        N/A
* BOULDER HILL N/A       74  44  34 SW9G14     N/A
* MONIDA PASS  N/A       75  40  28 SE8G13     N/A
* RAYNOLDS PAS N/A       78  50  38 E16G22     N/A
* WHITEHALL    N/A       81  55  41 E4G11      N/A   HI  81
* WISE RIVER   N/A       74  47  38 SE9        N/A
$$

MTZ009>010-012-014-046-048-049-054-232000-
EAST SLOPES AND CENTRAL MONTANA
CITY           SKY/WX    TMP DP  RH WIND       PRES   REMARKS
CUT BANK       SUNNY     75  55  50 SE12G21   30.08F
GREAT FALLS    SUNNY     84  52  33 VRB6      30.05F
HELENA         PTCLDY    84  48  29 NE8       30.08F
MALMSTROM AFB  SUNNY     84  50  31 E8        30.06F
* CONRAD       PTCLDY    77  66  69 E6         N/A
* DEARBORN     N/A       83  55  38 S3G12      N/A
* EAST GLACIER N/A       76  47  36 W16        N/A
* MONARCH      N/A       75  48  39 NE8G16     N/A
* ROGERS PASS  N/A       74  52  46 SE6G13     N/A
* SAINT MARY   N/A       75  50  42 SW6G11     N/A
* SWEET GRASS  N/A       74  54  50 S10        N/A
$$

MTZ011-013-016-021-035-040-045-047-050-051-232000-
NORTH CENTRAL MONTANA
CITY           SKY/WX    TMP DP  RH WIND       PRES   REMARKS
HAVRE          PTCLDY    86  57  37 E14       30.03F
LEWISTOWN      SUNNY     82  57  43 VRB6      30.11F HI  82
* CHESTER      N/A       79  58  49 S3         N/A
* DENTON       N/A       84  55  37 N7G12      N/A
* JUDITH GAP   N/A       78  54  44 SE6G13     N/A
* LOMA         N/A       86  56  36 E4G12      N/A
$$

MTZ017>020-022>027-061-062-232000-
NORTHEAST MONTANA
CITY           SKY/WX    TMP DP  RH WIND       PRES   REMARKS
GLASGOW        PTCLDY    86  59  40 E18       30.07F HI  85
GLENDIVE       PTCLDY    86  61  43 E9G17     30.12F HI  86
JORDAN         PTCLDY    88  57  35 E18       30.05F
SIDNEY         PTSUNNY   88  63  43 SE12G17   30.14F HI  89
WOLF POINT     PTSUNNY   90  59  35 E18G26    30.09F
* BEAVER HILL  N/A       81  66  60 E17G24     N/A   HI  83
* CIRCLE       N/A       83  64  53 NE11G17    N/A   HI  84
* LINDSAY DVD  N/A       84  61  46 NE13G18    N/A   HI  84
* NAVAJO       N/A       82  62  51 E14G19     N/A   HI  83
* SACO         N/A       84  57  40 E17G24     N/A   HI  83
$$

MTZ028>042-056>058-232000-
SOUTHCENTRAL AND SOUTHEAST MONTANA
CITY           SKY/WX    TMP DP  RH WIND       PRES   REMARKS
BAKER          PTCLDY    84  63  49 S14       30.16F HI  85
BILLINGS       PTCLDY    81  57  44 NE8       30.09F HI  81
LIVINGSTON     PTCLDY    82  52  35 W7        30.13F
MILES CITY     SUNNY     90  63  41 SE14G22   30.07F HI  91
* LAUREL APT   PTCLDY    79  59  50 E5         N/A
* ROUNDUP APT  SUNNY     81  61  51 N/A        N/A   HI  82
* ALZADA       N/A       84  62  48 E9G17      N/A   HI  85
* HYSHAM       N/A       85  57  39 E11G17     N/A
* LAME DEER    N/A       80  64  58 SE16G21    N/A   HI  82
* REED POINT   N/A       81  54  39 W8G13      N/A
* ROSCOE HILL  N/A       77  51  40 NW3        N/A
$$

REGIONAL REPORTS...DAKOTAS
CITY           SKY/WX    TMP DP  RH WIND       PRES   REMARKS
WILLISTON      PTCLDY    88  61  40 SE16G25   30.16F HI  88
DICKINSON      PTCLDY    79  64  60 SE16      30.18F
CROSBY         CLOUDY    75  70  85 E14G22    30.22S
TIOGA          PTSUNNY   81  68  65 SE15G24   30.23F HI  84
WATFORD CITY   SUNNY     82  63  53 SE16G23   30.15F HI  83
BISMARCK       SUNNY     81  63  54 SE15G25   30.24F HI  82
GRAND FORKS    PTCLDY    73  57  57 VRB7      30.28F
FARGO          SUNNY     77  59  54 N7        30.27S
BUFFALO SD     PTSUNNY   79  63  58 SE15      30.12F
RAPID CITY     SUNNY     79  63  58 SE16      30.21F
$$

REGIONAL REPORTS...WYOMING/IDAHO/WASHINGTON
CITY           SKY/WX    TMP DP  RH WIND       PRES   REMARKS
GILLETTE       SUNNY     88  61  40 S16G24    30.18F HI  88
SHERIDAN       SUNNY     88  61  40 SE7       30.10F HI  88
YELLOWSTONE LA SUNNY     77  32  19 VRB6      30.41F
SALMON         PTSUNNY   75  52  45 NW3       30.09F
MULLAN PASS    SUNNY     66  52  61 VRB7      30.16S
SAND POINT     SUNNY     79  55  44 NE7       29.97F
SPOKANE        PTSUNNY   82  50  33 SE10      29.93F

$$



USA.gov is the U.S. government's official web portal to all federal, state and local government web resources and services.